Observations for Trim Market St
| Time | AQI | Temp °C | Hum % | Pres Pa | CO μg/m³ | H₂S μg/m³ | NO μg/m³ | NO₂ μg/m³ | O₃ μg/m³ | SO₂ μg/m³ | PM1 μg/m³ | PM2.5 μg/m³ | PM10 μg/m³ |
|---|---|---|---|---|---|---|---|---|---|---|---|---|---|
| Tuesday 11 August 2026 | |||||||||||||
| 21:57 | 3 | 23.5 | 47 | 62,723 | 0 | 5.2 | 1.22 | 36.64 | 49.71 | 0 | 2.14 | 5.18 | 6 |
| 21:56 | 3 | 23.6 | 47 | 62,875 | 0 | 5.2 | 1.21 | 30.65 | 53.01 | 0 | 2.85 | 5.7 | 6.76 |
| 21:55 | 3 | 23.6 | 47 | 62,928 | 0 | 4.75 | 1.23 | 36.11 | 49.54 | 0 | 2.85 | 6.23 | 7.53 |
| 21:54 | 3 | 23.6 | 47 | 63,068 | 0 | 4.06 | 1.24 | 32.33 | 51.75 | 0 | 3.56 | 6.23 | 8.29 |
| 21:51 | 3 | 23.7 | 46 | 63,120 | 0 | 5.04 | 1.24 | 38.51 | 48.14 | 0 | 3.56 | 5.73 | 6.76 |
| 21:50 | 3 | 23.7 | 46 | 63,215 | 0 | 4.43 | 1.24 | 28.09 | 53.51 | 0 | 3.56 | 6.77 | 8.29 |
| 21:47 | 3 | 23.9 | 46 | 63,268 | 0 | 6.15 | 1.21 | 28.71 | 54.88 | 0 | 2.85 | 4.7 | 6.76 |
| 21:40 | 3 | 24.1 | 46 | 63,829 | 0 | 7.39 | 1.19 | 40.98 | 49.05 | 0 | 2.85 | 5.77 | 7.53 |
| 21:36 | 3 | 24.2 | 45 | 63,964 | 0 | 6.14 | 1.19 | 25.92 | 56.79 | 0 | 3.56 | 6.3 | 8.3 |
| 21:35 | 3 | 24.3 | 45 | 63,966 | 0 | 7.83 | 1.17 | 34.84 | 50.71 | 0 | 2.85 | 5.26 | 7.53 |
| 21:34 | 3 | 24.3 | 45 | 64,046 | 0 | 6.77 | 1.18 | 31.16 | 52.85 | 0 | 3.56 | 5.79 | 7.53 |
| 21:33 | 3 | 24.3 | 45 | 64,084 | 0 | 9.82 | 1.18 | 31.57 | 53.05 | 0 | 2.85 | 5.27 | 5.98 |
| 21:32 | 3 | 24.3 | 45 | 64,131 | 0 | 11.1 | 1.19 | 46.78 | 50.22 | 0 | 3.56 | 6.31 | 7.53 |
| 21:31 | 3 | 24.4 | 45 | 64,205 | 0 | 9.11 | 1.16 | 39.35 | 49.19 | 0 | 3.56 | 6.32 | 9.08 |
| 21:30 | 3 | 24.4 | 45 | 64,293 | 0 | 10.3 | 1.16 | 44.61 | 47.58 | 0 | 3.56 | 6.32 | 7.53 |
| 21:29 | 3 | 24.5 | 45 | 64,408 | 0 | 9.85 | 1.14 | 28.47 | 52.89 | 0 | 3.56 | 6.85 | 8.3 |
| 21:28 | 3 | 24.5 | 45 | 64,462 | 0 | 9.82 | 1.14 | 44.04 | 49.36 | 0 | 2.85 | 6.86 | 9.86 |
| 21:27 | 3 | 24.5 | 45 | 64,536 | 0 | 9.63 | 1.13 | 37.98 | 52.52 | 0 | 2.85 | 5.3 | 7.53 |
| 21:26 | 3 | 24.6 | 44 | 64,562 | 0 | 10.16 | 1.13 | 36.17 | 51.54 | 0 | 2.85 | 4.78 | 5.19 |
| 21:25 | 3 | 24.6 | 44 | 64,599 | 0 | 11.78 | 1.13 | 37.86 | 51.89 | 0 | 2.85 | 5.83 | 9.86 |